TIME,DELAY(SENSOR),PRES,OXYGEN,RAWTEMP,T(OPTODE),TCPHASE,FLUOR,BETA(BETA700),BETA(BETA412),BETA(BETA440),CDOM,C(CSC),ED(ED411.90),ED(ED443.80),ED(ED489.40),ED(ED554.70),LU(LU412.20),LU(LU443.80),LU(LU489.40),LU(LU555.00),COMP,TILTX,TILTY,CHECK
1346708892,5808,882.2999877929688000,166.9542999267578000,387.3371887207031000,10.9883499145507810,38.2449989318847660,52,101,97,79,77,13555,2146959286,2147515218,2147281188,2147501174,2147091300,2146935259,2147688237,2147123456,576,-2,8,17177
1346712489,5807,997.9299926757812000,177.8560028076172000,469.4923095703125000,8.4729814529418950,38.8213996887207000,51,104,99,79,79,13540,2146956224,2147515264,2147287725,2147518573,2147089170,2146925449,2147715410,2147122203,132,-2,8,427
1346716089,5805,1016.2800292968750000,191.3585052490234400,487.3482055664062500,7.9214792251586910,38.2247505187988300,53,105,100,79,79,13537,2146956169,2147514349,2147287414,2147517302,2147090532,2146923693,2147716196,2147119488,80,-1,8,19909
1346719689,5804,1018.8300170898438000,193.1679992675781200,489.5556945800781000,7.8531589508056640,38.1466102600097660,52,104,100,80,79,13536,2146957878,2147513883,2147290450,2147514642,2147089389,2146926345,2147717440,2147118729,1034,-2,8,45800
1346723289,5804,1025.3699951171875000,193.2960052490234400,490.2369995117187500,7.8320670127868650,38.1501884460449200,52,102,99,80,79,13534,2146955968,2147513545,2147291529,2147522450,2147091565,2146922102,2147715053,2147119506,464,-1,8,53800
1346726889,5808,1026.3000488281250000,193.6513977050781200,491.1888122558594000,7.8025979995727540,38.1442184448242200,52,104,98,79,80,13536,2146954825,2147517988,2147291136,2147519963,2147092132,2146923291,2147716461,2147120292,93,-1,8,21647
1346730489,5806,1024.7900390625000000,196.1112060546875000,494.1379089355469000,7.7112460136413570,38.0393409729003900,52,104,99,79,79,13531,2146957540,2147518573,2147292992,2147519552,2147091657,2146927963,2147716571,2147117220,3550,-2,8,19492
1346734089,5808,1029.7399902343750000,196.6266937255859400,493.7934875488281000,7.7219171524047850,38.0009689331054700,52,106,99,79,79,13517,2146958537,2147518262,2147293714,2147521353,2147090139,2146921371,2147712941,2147121517,115,-2,8,4574
1346737689,5809,1029.9699707031250000,196.9945068359375000,494.4630126953125000,7.7011737823486330,37.9896316528320300,52,106,99,80,79,13529,2146957714,2147518208,2147294436,2147519168,2147091209,2146927396,2147715894,2147116105,116,-2,8,44880
1346741289,5804,1031.4899902343750000,195.4037017822265600,493.9086914062500000,7.7183489799499510,38.0801811218261700,53,104,99,79,79,13530,2146958674,2147514057,2147295168,2147520155,2147092416,2146922422,2147719323,2147117266,2746,-2,8,57662
1346744889,5807,1029.5400390625000000,196.9288024902343800,495.3252868652344000,7.6744508743286130,38.0087699890136700,52,106,100,79,78,13530,2146957531,2147516900,2147292196,2147519131,2147092123,2146921508,2147718692,2147115510,131,-1,8,50182
1346748489,5807,1031.3299560546875000,197.4192047119140600,496.0726013183594000,7.6512861251831055,37.9907798767089840,52,101,99,79,79,13530,2146957632,2147516068,2147292489,2147520557,2147092178,2146926363,2147715776,2147115748,379,-2,8,22077
1346752089,5806,1030.4100341796875000,197.7071075439453000,495.7485046386719000,7.6613311767578125,37.9669799804687500,52,104,99,79,79,13527,2146958491,2147518308,2147293083,2147519936,2147093650,2146927542,2147718893,2147118070,70,-1,8,5996
1346755689,5805,1033.1899414062500000,197.5511016845703000,495.8937072753906000,7.6568322181701660,37.9790000915527340,53,101,101,79,81,13528,2146958765,2147515730,2147292809,2147518308,2147092918,2146922578,2147718939,2147115136,2546,-2,8,2917
1346759289,5807,1025.6300048828125000,195.3643951416015600,493.4833068847656000,7.7315268516540530,38.0751991271972660,52,103,99,80,79,13524,2146957997,2147517476,2147289636,2147517705,2147092397,2146919250,2147721874,2147118098,327,-1,8,36875
1346762889,5806,1024.0500488281250000,195.8177947998047000,494.8133850097656000,7.6903119087219240,38.0699882507324200,52,106,100,79,78,13522,2146959488,2147513490,2147294034,2147518500,2147091017,2146925531,2147715602,2147117156,231,-2,8,4027
1346766489,5806,1029.8499755859375000,195.6309051513672000,493.1991882324219000,7.7403302192687990,38.0536613464355500,52,170,99,79,79,13526,2146955520,2147515501,2147292370,2147519515,2147089216,2146926016,2147721106,2147118848,2802,-1,8,20423
1346770089,5805,1026.5999755859375000,195.1132049560547000,494.1307067871094000,7.7114682197570800,38.1018486022949200,54,103,99,79,79,13524,2146958134,2147517184,2147293668,2147517449,2147092434,2146919350,2147717622,2147120237,3557,-2,8,59110
1346773689,5805,1030.4399414062500000,195.5121002197265600,493.3439025878906000,7.7358460426330570,38.0632705688476560,53,103,101,79,80,13523,2146956269,2147516653,2147294500,2147519405,2147090761,2146927616,2147715785,2147117065,3374,-2,8,65295
1346777289,5806,1028.0000000000000000,194.8621063232422000,494.1643066406250000,7.7104282379150390,38.1188812255859400,53,103,99,80,79,13523,2146961115,2147516132,2147293723,2147518857,2147087488,2146923410,2147719405,2147115117,426,-2,8,25306
1346780889,5807,1029.6199951171875000,195.1616058349609400,494.5046081542969000,7.6998820304870605,38.1058616638183600,52,105,100,79,78,13522,2146957531,2147516717,2147293641,2147518985,2147093641,2146925001,2147717796,2147119021,623,-1,8,48279
1346784489,5802,1029.7199707031250000,195.2901000976562500,494.7008056640625000,7.6938028335571290,38.1007003784179700,52,102,99,79,80,13521,2146957092,2147514121,2147293522,2147519881,2147091830,2146924708,2147712301,2147120841,3498,-2,8,34249
1346788089,5806,1028.4699707031250000,196.9508056640625000,494.4872131347656000,7.7004208564758300,37.9925804138183600,52,104,99,80,80,13516,2146957997,2147514971,2147293540,2147520557,2147094692,2146925092,2147714761,2147117924,2682,-2,8,15078
1346791689,5806,1024.0999755859375000,197.1596984863281200,494.9516906738281000,7.6860280036926270,37.9877281188964840,53,105,99,78,79,13521,2146957805,2147514724,2147293613,2147518957,2147092242,2146916416,2147719067,2147118939,3001,-2,8,36853
1346795289,5807,1028.2500000000000000,197.6743011474609400,495.7123107910156000,7.6624531745910645,37.9689598083496100,52,104,100,79,80,13511,2146957558,2147516754,2147295652,2147519213,2147092196,2146928667,2147716662,2147122002,115,-2,7,23590
1346798889,5804,1026.5600585937500000,197.9694061279297000,495.6665954589844000,7.6638708114624020,37.9493217468261700,53,103,100,79,79,13512,2146958994,2147515392,2147294016,2147517037,2147091282,2146926784,2147718875,2147119451,384,-2,7,26303
1346802489,5804,1028.2600097656250000,195.7324066162109400,496.1134948730469000,7.6500182151794430,38.0975418090820300,53,103,99,79,79,13514,2146959378,2147516845,2147295424,2147517028,2147091574,2146924324,2147719012,2147115730,3495,-2,8,28232
1346806089,5806,1028.1400146484375000,196.4093017578125000,495.8086853027344000,7.6594648361206055,38.0493507385253900,53,102,99,77,79,13511,2146956900,2147514779,2147295360,2147519734,2147092178,2146932288,2147715392,2147118098,3577,-2,8,52589
1346809689,5806,1032.9000244140625000,197.7301940917968800,495.2185058593750000,7.6777582168579100,37.9569892883300800,52,104,98,78,80,13509,2146959332,2147512576,2147294756,2147517997,2147089234,2146923840,2147716973,2147119140,428,-2,8,39098
1346813289,5809,1031.6800537109375000,197.5700073242187500,494.8125000000000000,7.6903419494628910,37.9598503112793000,53,104,99,78,80,13512,2146959378,2147517412,2147291446,2147515995,2147094208,2146920365,2147716059,2147118308,387,-1,8,65211
1346816889,5808,1035.4000244140625000,197.1367950439453000,494.8919067382812500,7.6878800392150880,37.9879302978515600,54,107,99,79,80,13512,2146956800,2147516132,2147293814,2147517961,2147091620,2146918857,2147716672,2147116324,320,-2,8,22356
1346820489,5804,1014.8599853515625000,190.5139007568359400,484.6712951660156000,8.0042839050292970,38.2335090637207000,52,108,98,79,79,13505,2146954221,2147515629,2147291867,2147515666,2147091456,2146927597,2147715803,2147119250,3423,-2,8,56038
1346824089,5804,1011.7800292968750000,190.4201965332031200,485.4129028320312500,7.9813470840454100,38.2518501281738300,53,106,99,80,79,13507,2146959003,2147516854,2147292608,2147517961,2147090724,2146928064,2147715894,2147118957,369,-1,8,35343
1346827689,5808,1014.6199951171875000,190.5119934082031200,484.8052978515625000,8.0001392364501950,38.2351608276367200,53,107,99,80,78,13506,2146954340,2147515730,2147292617,2147516745,2147089051,2146924315,2147714276,2147118582,396,-2,8,48534
1346831289,5807,1012.8099975585938000,190.5751037597656200,485.0098876953125000,7.9938139915466310,38.2347297668457000,53,101,99,79,79,13505,2146960164,2147514313,2147292717,2147519341,2147093970,2146925979,2147714998,2147120859,480,-2,8,19215
1346834889,5808,1011.2500000000000000,191.4620971679687500,485.9996032714844000,7.9632000923156740,38.1952095031738300,52,109,99,80,77,13503,2146958134,2147517412,2147292269,2147514752,2147090825,2146924214,2147718080,2147117174,651,-2,8,19951
1346838489,5804,1008.6599731445312000,192.5099029541015600,486.8422851562500000,7.9371318817138670,38.1414413452148440,53,104,100,78,79,13504,2146958217,2147517421,2147290880,2147516169,2147094381,2146923318,2147715739,2147117366,688,-2,8,44476
1346842089,5807,1012.1699829101562000,191.6707000732422000,485.7753906250000000,7.9701361656188965,38.1771392822265600,52,111,99,80,79,13475,2146955620,2147517449,2147292745,2147517120,2147093412,2146927506,2147713892,2147116214,811,-2,8,1396
1346845689,5808,1012.3499755859375000,191.6968994140625000,485.7817993164062500,7.9699368476867680,38.1760482788085940,53,105,100,79,79,13470,2146957046,2147517814,2147294454,2147513718,2147093120,2146922578,2147714962,2147120054,806,-1,8,27256
1346849289,5808,1013.7999877929688000,189.3919982910156200,484.3435058593750000,8.0144214630126950,38.3001213073730500,53,108,101,78,81,13469,2146956425,2147517101,2147293769,2147514843,2147090706,2146924882,2147714294,2147120658,286,-1,7,39696
1346852156,5806,1012.4000244140625000,189.7843017578125000,486.4143981933594000,7.9503698348999020,38.3101005554199200,52,103,102,81,80,13499,2146956928,2147514706,2147291300,2147515163,2147090678,2146923949,2147714925,2147116224,3286,-2,8,36337
